Rexburg, ID

4:55 PM MDT on March 24, 2017 (GMT -0600)
Rexburg-Madison County

Weather History for KRXE - November, 2010

Change the Weather History Date:

Thursday, November 18, 2010

  Actual Average Record
Temperature  
Mean Temperature 43 °F 29 °F  
Max Temperature 53 °F 39 °F 56 °F (2008)
Min Temperature 33 °F 20 °F -4 °F (2014)
Degree Days  
Heating Degree Days 22 36  
Month to date heating degree days 492 560  
Since 1 July heating degree days 1294 1547  
Cooling Degree Days 0 0  
Month to date cooling degree days 0 0  
Year to date cooling degree days 175 208  
Moisture  
Dew Point 22 °F    
Average Humidity 46    
Maximum Humidity 64    
Minimum Humidity 28    
Precipitation  
Precipitation 0.00 in 0.03 in 0.25 in (1988)
Month to date precipitation 1.14 0.68  
Year to date precipitation 10.97 11.67  
Sea Level Pressure  
Sea Level Pressure 29.86 in    
Wind  
Wind Speed 14 mph (SW)    
Max Wind Speed 31 mph    
Max Gust Speed 43 mph    
Visibility 10 miles    
Events      
T = Trace of Precipitation, MM = Missing Value Source: NWS Daily Summary

Daily Weather History Graph

Daily Weather History Graph

Search for Another Location

Airport or City:

Trip Planner

Search our weather history database for the weather conditions in past years. The results will help you decide how hot, cold, wet, or windy it might be!

Date:

Astronomy

Nov. 18, 2010 Rise Set
Actual Time 7:25 AM MST 4:58 PM MST
Civil Twilight 6:54 AM MST 5:30 PM MST
Nautical Twilight 6:19 AM MST 6:05 PM MST
Astronomical Twilight 5:45 AM MST 6:39 PM MST
Moon 3:02 PM MST (11/18) 4:22 AM MST (11/18)
Length of Visible Light 10h 35m
Length of Day
9h 32m
Waxing Gibbous, 91% of the Moon is Illuminated
Nov 18
Waxing Gibbous
Nov 21
Full
Nov 28
Last Quarter
Dec 5
New
Dec 13
First Quarter

Hourly Weather History & Observations

Time (MST) Temp. Windchill Dew Point Humidity Pressure Visibility Wind Dir Wind Speed Gust Speed Precip Events Conditions
12:53 AM 37.9 °F 30.0 °F 23.0 °F 55% 30.08 in 10.0 mi South 12.7 mph 21.9 mph N/A   Clear
1:53 AM 37.9 °F 30.0 °F 23.0 °F 55% 30.05 in 10.0 mi South 12.7 mph 19.6 mph N/A   Clear
2:53 AM 37.9 °F 30.0 °F 21.9 °F 53% 30.02 in 10.0 mi South 12.7 mph 21.9 mph N/A   Clear
3:53 AM 39.0 °F 31.0 °F 21.0 °F 49% 29.97 in 10.0 mi South 13.8 mph 20.7 mph N/A   Clear
4:53 AM 36.0 °F 32.1 °F 21.9 °F 57% 29.97 in 10.0 mi WSW 4.6 mph - N/A   Clear
5:53 AM 35.1 °F 29.3 °F 21.9 °F 59% 29.96 in 10.0 mi WSW 6.9 mph - N/A   Clear
6:53 AM 34.0 °F 28.0 °F 21.9 °F 61% 29.96 in 10.0 mi West 6.9 mph - N/A   Clear
7:53 AM 35.1 °F 32.2 °F 21.9 °F 59% 29.94 in 10.0 mi SW 3.5 mph - N/A   Clear
8:53 AM 35.1 °F - 24.1 °F 64% 29.93 in 10.0 mi Calm Calm - N/A   Clear
9:53 AM 37.9 °F - 24.1 °F 57% 29.89 in 10.0 mi Calm Calm - N/A   Clear
10:53 AM 46.0 °F 39.6 °F 24.1 °F 42% 29.83 in 10.0 mi SSW 15.0 mph 24.2 mph N/A   Clear
11:53 AM 50.0 °F - 21.9 °F 33% 29.79 in 10.0 mi SSW 21.9 mph 31.1 mph N/A   Clear
12:53 PM 51.1 °F - 19.9 °F 29% 29.76 in 10.0 mi SW 23.0 mph 35.7 mph N/A   Clear
1:53 PM 52.0 °F - 21.9 °F 31% 29.75 in 10.0 mi SW 24.2 mph 38.0 mph N/A   Clear
2:53 PM 52.0 °F - 21.0 °F 30% 29.74 in 10.0 mi SW 26.5 mph 42.6 mph N/A   Clear
3:53 PM 50.0 °F - 21.0 °F 32% 29.75 in 10.0 mi SW 23.0 mph 33.4 mph N/A   Mostly Cloudy
4:53 PM 46.9 °F - 21.0 °F 36% 29.77 in 10.0 mi SW 17.3 mph - N/A   Clear
5:53 PM 45.0 °F 37.9 °F 21.0 °F 39% 29.78 in 10.0 mi SW 16.1 mph - N/A   Clear
6:53 PM 44.1 °F 37.7 °F 21.0 °F 40% 29.79 in 10.0 mi SW 12.7 mph - N/A   Clear
7:53 PM 43.0 °F 36.4 °F 19.9 °F 40% 29.80 in 10.0 mi SSW 12.7 mph - N/A   Clear
8:53 PM 43.0 °F 35.1 °F 19.9 °F 40% 29.80 in 10.0 mi SW 17.3 mph 23.0 mph N/A   Clear
9:53 PM 41.0 °F 32.8 °F 21.0 °F 45% 29.79 in 10.0 mi SSW 16.1 mph - N/A   Clear
10:53 PM 42.1 °F 33.6 °F 19.9 °F 41% 29.78 in 10.0 mi SW 18.4 mph 25.3 mph N/A   Mostly Cloudy
11:53 PM 39.9 °F 30.8 °F 21.9 °F 49% 29.79 in 10.0 mi SSW 18.4 mph 26.5 mph N/A   Overcast